Location: Newark
(48.0000°N, 67.0000°E)
Time: 06:20:10
(UTC+00:00)

A-11 Canister half - Pass Details

Date: 23 February 2020
Orbit: 1516 x 1683 km, 47.2° (Epoch: 07 April)

Event Time Altitude Azimuth Distance (km) Brightness Sun altitude
Rises 13:30:49 0° 261° (W) 4,895 14.8 -4.9°
Reaches altitude 10° 13:33:59 10° 261° (W) 3,890 13.1 -5.4°
Maximum altitude 13:43:57 86° 175° (S) 1,615 9.2 -7.1°
Drops below altitude 10° 13:53:33 10° 88° (E) 3,759 10.3 -8.7°
Enters shadow 13:53:36 10° 88° (E) 3,770 10.3 -8.7°
